CW9767 Weather Reports


time (UTC)temp
C
wind
direction
speed
KPH
gust
KPH
rain 1hr
cm
rain 24hr
cm
rain mn
cm
humidity
%
barometer
mb
20260504184050 23 238 9.7 25.7 0.00 0.00 0.00 43 1002.0
20260504182843 23 228 8.0 24.1 0.00 0.00 0.00 41 1002.0
20260504181842 23 232 8.0 22.5 0.00 0.00 0.00 40 1002.0
20260504180840 23 211 12.9 22.5 0.00 0.00 0.00 42 1002.4
20260504175839 23 223 11.3 20.9 0.00 0.00 0.00 44 1002.4
20260504174837 23 228 9.7 20.9 0.00 0.00 0.00 43 1002.7
20260504173836 22 234 6.4 24.1 0.00 0.00 0.00 46 1002.7
20260504172834 22 222 11.3 24.1 0.00 0.00 0.00 44 1003.0
20260504171833 22 228 8.0 22.5 0.00 0.00 0.00 45 1003.0
20260504170831 22 218 11.3 22.5 0.00 0.00 0.00 45 1003.0
20260504150640 18 235 4.8 17.7 0.00 0.00 0.00 59 1004.4
20260504140631 16 222 4.8 14.5 0.00 0.00 0.00 66 1004.7
20260504130621 13 246 4.8 9.7 0.00 0.00 0.00 70 1005.4
20260504110528 8 210 0.0 0.0 0.00 0.00 0.00 82 1005.4
20260504100519 8 220 0.0 0.0 0.00 0.00 0.00 82 1005.4
20260504081432 8 219 0.0 0.0 0.00 0.00 0.00 81 1006.1
20260504080430 8 220 0.0 0.0 0.00 0.00 0.00 80 1006.4
20260504050300 10 206 8.0 14.5 0.00 0.00 0.00 74 1008.5
20260504045259 9 203 9.7 14.5 0.00 0.00 0.00 75 1008.5
20260504044258 9 212 6.4 14.5 0.00 0.00 0.00 75 1008.8
20260504043257 9 207 8.0 12.9 0.00 0.00 0.00 75 1008.5
20260504042254 10 209 8.0 14.5 0.00 0.00 0.00 74 1008.8
20260504041254 10 211 8.0 16.1 0.00 0.00 0.00 74 1009.1
20260504040150 10 207 8.0 16.1 0.00 0.00 0.00 73 1009.1
20260504035148 10 217 8.0 16.1 0.00 0.00 0.00 73 1009.1
20260504034146 10 214 8.0 12.9 0.00 0.00 0.00 72 1009.1
20260504033145 10 207 8.0 14.5 0.00 0.00 0.00 72 1009.5
20260504032143 10 208 8.0 14.5 0.00 0.00 0.00 72 1009.5
20260504031142 10 206 8.0 14.5 0.00 0.00 0.00 73 1009.5
20260504030109 10 207 8.0 14.5 0.00 0.00 0.00 74 1009.5
20260504025036 10 204 8.0 12.9 0.00 0.00 0.00 75 1009.8
20260504024034 10 207 6.4 12.9 0.00 0.00 0.00 76 1009.8
20260504023001 10 211 6.4 11.3 0.00 0.00 0.00 76 1009.8
20260504022000 10 211 8.0 11.3 0.00 0.00 0.00 75 1009.8
20260504020926 10 202 6.4 12.9 0.00 0.00 0.00 75 1010.2
20260504015852 10 203 6.4 14.5 0.00 0.00 0.00 75 1010.2
20260504014851 10 204 8.0 14.5 0.00 0.00 0.00 75 1009.8
20260504013848 10 205 6.4 12.9 0.00 0.00 0.00 75 1010.2
20260504012845 10 209 6.4 12.9 0.00 0.00 0.00 74 1010.2
20260504011842 10 203 6.4 12.9 0.00 0.00 0.00 74 1010.2
20260504010841 10 206 6.4 12.9 0.00 0.00 0.00 74 1010.2
20260504005839 10 208 4.8 9.7 0.00 0.00 0.00 74 1010.2
20260504004837 10 210 4.8 11.3 0.00 0.00 0.00 73 1010.2
20260504003835 10 213 4.8 11.3 0.00 0.00 0.00 74 1010.2
20260504002834 10 220 4.8 9.7 0.00 0.00 0.00 73 1010.2
20260504001801 11 216 3.2 12.9 0.00 0.00 0.00 73 1010.2
20260504000758 11 215 3.2 12.9 0.00 0.00 0.00 73 1010.5
20260503235757 11 217 0.0 0.0 0.00 0.00 0.00 72 1010.5
20260503234755 11 231 0.0 0.0 0.00 0.00 0.00 70 1010.5
20260503233722 11 212 0.0 11.3 0.00 0.00 0.00 70 1010.5
20260503232720 11 224 0.0 12.9 0.00 0.00 0.00 67 1010.8
20260503231719 11 222 4.8 16.1 0.00 0.00 0.00 66 1010.8
20260503230717 11 241 4.8 16.1 0.00 0.00 0.00 65 1011.2
20260503225612 12 240 4.8 20.9 0.00 0.00 0.00 65 1011.2
20260503224538 12 246 11.3 25.7 0.00 0.00 0.00 65 1011.2
20260503223505 12 250 12.9 25.7 0.00 0.00 0.00 64 1011.5
20260503222504 12 253 14.5 27.4 0.00 0.00 0.00 62 1011.2
20260503221430 13 249 14.5 27.4 0.00 0.00 0.00 62 1011.5
20260503220428 13 251 14.5 30.6 0.00 0.00 0.00 60 1011.2
20260503215427 14 259 11.3 30.6 0.00 0.00 0.00 57 1011.2
20260503214424 15 252 20.9 37.0 0.00 0.00 0.00 56 1010.8
20260503213423 16 244 19.3 37.0 0.00 0.00 0.00 48 1010.5
20260503212418 16 235 12.9 27.4 0.00 0.00 0.00 46 1010.5
20260503211416 16 226 12.9 27.4 0.00 0.00 0.00 43 1010.5
20260503210413 17 242 14.5 25.7 0.00 0.00 0.00 45 1010.5
20260503205339 17 236 11.3 29.0 0.00 0.00 0.00 43 1010.8
20260503204336 17 255 17.7 29.0 0.00 0.00 0.00 43 1010.8
20260503203332 16 243 11.3 32.2 0.00 0.00 0.00 45 1010.8
20260503202329 17 249 12.9 32.2 0.00 0.00 0.00 43 1011.2
20260503201327 16 243 11.3 25.7 0.00 0.00 0.00 43 1011.2
20260503200326 16 248 16.1 30.6 0.00 0.00 0.00 42 1011.5
20260503195252 17 250 14.5 30.6 0.00 0.00 0.00 41 1011.5
20260503194250 17 230 11.3 27.4 0.00 0.00 0.00 43 1011.5
20260503193248 17 243 11.3 25.7 0.00 0.00 0.00 40 1011.9
20260503192242 17 244 11.3 29.0 0.00 0.00 0.00 42 1011.9
20260503191239 17 235 11.3 29.0 0.00 0.00 0.00 40 1011.9
20260503190133 17 240 11.3 27.4 0.00 0.00 0.00 39 1011.9
20260503185059 17 242 14.5 29.0 0.00 0.00 0.00 40 1012.2